Theta_e
322 321 319 318 316 317 322 326 326 325 323 321 321 321 321 321 321 322 322 321 321 323 324 325 325 326 327 326 326 327 327 326 324 324 325 325 320 317 318 318 318 316 312 311 312 314 314 314 312 312 313 314 316 319 319 318 319 318 320 320 319 320 320 321 320 318 318 318 318 317 318 318 318 316 316 316 316 317 317 317 318 317 317 317 316 318 326 323
322 320 318 318 316 315 320 325 326 325 325 323 321 321 321 321 321 322 323 322 322 324 325 325 326 327 326 326 326 326 326 326 321 322 324 323 319 316 316 317 317 318 315 311 313 314 314 313 312 313 315 317 317 318 320 319 319 319 320 319 319 321 320 320 320 318 318 318 318 318 318 318 318 317 316 316 316 316 316 317 317 317 318 316 316 316 318 316
321 320 318 318 316 315 318 324 326 324 325 325 323 321 321 321 321 321 322 322 322 324 324 325 326 327 326 326 326 326 327 323 318 321 324 322 320 317 316 315 315 316 316 313 312 314 314 314 312 313 315 317 318 318 319 319 318 319 321 320 321 322 319 318 318 317 317 318 319 318 318 318 318 317 316 316 317 316 315 317 317 317 319 318 316 316 316 314
321 320 319 318 316 315 317 323 325 324 325 326 325 322 322 321 321 320 321 322 323 324 324 325 326 326 326 326 325 325 323 318 316 323 325 322 321 317 315 315 313 314 315 313 312 313 314 313 312 313 316 317 318 318 318 319 318 319 320 320 321 321 319 317 317 315 316 317 318 318 318 318 317 316 315 316 316 316 316 317 317 316 318 319 316 315 316 314
321 320 319 318 317 316 317 321 324 324 324 326 325 323 322 322 321 320 320 321 322 324 324 325 326 326 326 326 326 322 317 317 320 324 324 322 320 317 316 315 315 313 313 314 313 313 314 313 311 313 316 316 317 317 318 318 318 319 319 318 318 320 318 317 315 314 315 316 318 318 317 317 316 316 315 316 316 316 317 316 317 316 317 319 317 315 316 315
321 320 318 318 318 317 318 321 323 324 324 325 325 323 322 322 322 321 321 321 321 323 323 324 325 325 326 325 325 320 316 321 321 321 324 322 319 317 316 315 315 313 312 314 312 312 314 312 311 314 315 316 316 316 317 317 317 318 318 318 316 317 317 315 314 313 314 316 317 317 317 316 315 316 316 316 317 316 316 316 317 316 318 319 317 315 315 315
320 320 318 318 318 318 318 321 323 323 323 323 324 324 323 322 322 321 321 321 321 322 322 324 324 325 325 324 325 319 315 319 316 318 322 321 318 316 316 315 315 313 311 312 311 312 313 312 312 314 315 315 316 316 316 316 316 317 318 317 315 315 315 314 313 313 313 316 317 316 316 316 315 315 316 316 316 316 315 315 316 315 317 318 316 315 315 315
320 320 318 317 318 318 318 320 322 323 322 323 323 324 323 322 322 322 322 322 322 322 322 323 324 324 324 323 325 319 315 318 315 316 319 319 318 316 316 315 315 314 312 311 311 312 313 312 312 314 316 315 316 316 315 316 316 317 317 316 315 314 314 312 312 312 312 314 314 315 315 316 316 315 315 315 316 316 315 314 314 315 315 315 314 314 315 315
320 319 318 317 317 317 318 320 321 322 322 322 323 323 324 323 323 322 323 323 323 323 323 323 324 324 323 323 324 318 317 320 315 314 316 317 318 316 316 316 315 314 313 311 310 312 313 312 312 314 316 315 315 316 315 316 316 317 317 315 314 314 313 312 313 313 312 313 313 314 316 315 314 314 315 316 316 315 315 314 314 314 314 315 314 314 314 314
320 319 318 317 316 316 318 319 321 322 322 322 322 321 323 323 323 323 323 324 323 323 323 323 324 324 323 323 321 318 321 323 317 315 315 316 317 316 316 315 314 312 311 311 311 313 313 312 312 314 315 314 314 315 316 316 315 316 315 315 314 314 313 313 314 313 313 313 313 315 316 314 313 313 316 316 316 315 315 314 314 314 314 314 314 314 314 314
319 319 318 318 316 316 317 318 320 321 321 321 321 320 321 321 322 323 324 324 324 324 324 324 324 324 323 323 321 320 324 323 321 319 315 315 317 316 316 314 312 310 310 311 311 313 313 312 312 313 313 313 314 315 316 315 315 316 315 315 314 313 313 313 313 313 314 314 313 316 316 314 313 313 316 316 315 315 314 314 314 314 315 315 314 313 314 314
319 318 318 317 316 316 317 317 318 320 320 320 320 320 319 320 321 322 324 324 324 324 324 324 324 324 322 321 321 323 324 322 321 320 316 315 316 316 316 312 310 310 310 311 312 313 313 312 311 313 313 312 313 314 315 314 315 315 315 316 314 314 314 314 314 313 314 314 312 315 315 314 314 314 316 316 314 314 314 315 315 313 315 316 316 314 314 314
319 318 317 317 316 316 316 315 316 318 319 320 320 319 319 319 320 321 323 323 324 324 324 324 324 323 320 318 322 324 321 319 317 316 316 315 313 313 313 311 309 310 312 313 314 313 313 311 311 313 312 312 314 313 313 314 315 315 315 316 315 315 315 315 314 313 314 314 312 314 314 315 317 316 316 315 314 314 314 315 316 315 315 316 315 314 314 314
319 318 316 316 315 315 315 315 316 316 317 318 318 319 319 319 319 320 322 323 323 323 323 324 323 322 318 316 321 322 316 313 314 314 313 314 311 310 312 311 311 313 314 314 314 314 312 311 311 312 312 312 313 313 313 314 314 315 315 316 316 315 315 315 314 314 315 313 312 314 313 315 318 317 315 314 314 314 315 315 316 316 316 316 315 313 314 313
319 318 316 316 315 314 315 317 317 316 316 317 317 318 319 318 318 319 322 322 322 322 323 322 319 318 315 313 315 315 311 309 312 314 312 311 310 310 312 312 314 315 315 314 313 313 312 311 312 312 312 312 313 313 313 313 314 315 314 314 315 315 315 315 314 314 315 313 312 314 313 315 317 316 314 313 313 314 315 316 316 316 317 316 315 314 314 314
318 317 316 315 315 314 316 317 317 316 316 316 316 317 317 317 317 319 321 320 319 319 318 314 312 313 313 311 311 310 310 309 311 313 314 313 310 310 312 313 315 314 313 313 313 312 311 312 313 313 312 312 312 313 314 314 313 315 314 313 315 316 315 315 314 314 314 314 313 313 314 316 316 315 313 312 313 314 315 316 316 316 316 316 315 314 314 314
318 317 316 315 314 314 315 316 316 315 315 316 316 316 315 315 316 318 318 316 314 313 311 309 307 311 313 312 312 311 311 310 310 312 313 314 312 311 312 314 314 314 314 313 313 312 312 312 313 313 313 313 313 314 314 313 312 314 314 314 315 315 314 314 314 314 314 314 314 313 313 315 317 316 314 312 313 314 315 315 316 316 316 316 315 315 314 314
317 316 315 315 315 314 314 315 314 315 316 317 317 315 314 314 315 315 315 312 310 309 309 309 308 312 314 312 312 313 313 312 311 311 312 313 313 312 313 314 314 314 314 314 313 313 312 313 313 313 313 313 313 314 314 313 313 313 313 314 316 315 314 314 314 314 313 314 315 315 314 314 316 317 316 314 313 314 315 315 316 316 316 316 316 316 315 315
317 316 315 315 314 313 313 313 314 316 317 316 315 313 313 313 313 314 314 310 309 309 309 311 311 313 314 312 312 313 313 313 311 311 311 312 313 313 314 314 314 314 314 313 313 313 313 314 313 313 314 313 313 313 314 315 314 315 314 314 315 314 314 315 314 313 313 314 315 315 315 315 316 316 317 316 314 314 315 316 316 316 316 316 316 316 316 315
317 316 315 314 313 312 313 313 315 316 316 316 314 313 313 314 314 314 312 309 309 310 310 312 311 313 313 311 313 314 312 312 310 310 310 311 313 313 314 314 315 315 314 314 314 314 314 314 313 314 314 314 313 314 314 314 315 316 316 315 315 315 313 314 314 312 313 314 315 315 315 316 316 316 317 317 315 315 316 316 316 316 316 316 316 316 316 315
317 315 314 313 313 313 313 313 315 316 316 315 314 314 314 315 314 314 312 311 310 310 310 311 310 312 312 310 312 313 312 312 311 310 309 310 313 314 314 314 315 315 315 315 315 314 314 314 314 313 314 314 313 314 314 314 314 314 315 315 315 315 314 314 314 313 313 314 315 316 315 316 316 316 317 318 316 316 316 316 316 316 316 317 317 317 317 316
315 314 313 313 313 313 312 314 315 315 315 314 314 314 314 314 315 314 312 311 310 309 310 311 310 311 311 309 311 312 312 312 313 312 310 311 314 314 314 314 315 315 315 315 314 314 314 314 314 313 314 314 313 314 313 313 314 314 315 314 314 315 314 313 314 313 312 313 315 317 316 316 316 316 317 317 317 316 317 316 316 316 317 316 317 318 318 317
314 313 312 313 313 312 312 314 315 314 314 314 314 314 313 313 314 315 313 311 311 309 310 311 310 311 311 310 311 312 313 313 313 313 311 312 314 314 314 314 314 315 314 315 315 314 314 313 314 313 313 313 312 313 313 314 314 314 315 313 314 316 314 313 314 313 312 312 314 316 316 316 316 316 317 317 317 317 317 317 317 317 317 317 318 319 318 317
313 312 312 313 313 311 312 313 314 313 313 314 314 313 312 312 313 316 314 313 311 309 310 310 310 312 312 311 311 312 313 313 314 314 312 313 314 314 315 315 315 315 314 314 314 314 315 311 310 312 313 313 313 313 313 314 313 315 317 315 316 317 315 314 315 313 312 312 313 314 314 314 315 316 316 317 318 318 318 318 318 317 317 317 317 318 318 317
313 312 312 313 313 312 311 312 312 311 311 313 313 311 310 311 313 315 313 312 312 310 310 310 310 312 312 311 312 313 314 313 314 314 312 313 314 314 315 315 315 314 314 314 313 315 315 309 308 313 313 314 314 313 314 315 313 314 318 317 316 316 315 315 315 314 313 314 315 315 312 311 315 316 316 317 317 317 317 317 316 316 316 316 316 316 316 316
313 312 313 312 312 312 311 311 311 310 311 312 311 309 310 311 311 313 311 311 312 310 309 310 310 311 312 312 313 313 312 313 314 314 312 313 314 314 314 314 314 314 315 314 314 315 312 307 309 315 314 315 315 313 315 316 313 313 317 318 315 316 317 316 316 315 313 314 314 314 312 312 314 316 317 317 316 315 316 316 316 316 316 316 316 316 316 316
313 312 312 311 311 312 311 311 310 310 312 311 309 309 309 309 309 311 311 310 311 311 310 309 310 311 312 313 313 312 312 312 314 313 313 313 313 313 314 313 313 314 314 314 314 314 310 308 311 315 315 316 316 314 316 316 313 315 318 318 315 317 318 317 317 315 314 315 314 314 315 313 312 315 317 317 315 315 316 316 317 316 316 317 316 314 315 315
312 311 312 311 311 311 311 311 310 311 311 309 308 309 308 308 308 310 310 309 310 311 310 309 309 311 312 313 313 312 312 313 313 314 313 313 313 313 313 314 313 313 313 314 315 313 312 313 314 315 315 316 315 316 318 316 315 317 316 317 316 318 319 318 317 316 315 315 313 315 317 313 311 314 317 316 315 315 315 316 317 317 317 316 315 314 313 313
312 312 312 312 311 311 311 311 311 311 310 308 308 309 307 307 308 309 311 310 310 310 310 310 310 311 312 313 313 313 313 313 313 314 313 312 313 312 313 314 314 313 311 314 316 314 313 313 313 315 316 316 314 314 318 319 317 315 314 316 316 317 318 318 317 315 315 314 313 316 316 312 312 313 315 315 314 315 316 316 317 318 317 315 314 313 313 312
312 312 312 312 311 311 311 311 310 309 308 308 309 308 307 307 308 309 310 311 311 310 309 310 310 311 312 312 312 312 313 313 313 313 313 312 312 312 312 314 314 313 312 315 316 313 311 310 311 314 314 313 311 310 314 318 316 314 315 316 316 316 316 316 315 314 313 314 314 316 316 314 312 312 314 316 315 316 316 316 317 318 316 315 314 313 313 313
312 313 312 311 311 311 311 311 310 308 307 309 309 307 307 308 308 309 310 311 312 310 309 309 310 311 312 312 312 312 312 313 313 313 313 312 312 311 312 313 314 315 314 315 316 314 312 311 311 312 310 310 312 312 312 313 314 316 317 316 315 315 314 314 314 314 313 314 313 312 314 315 312 312 315 316 315 315 315 315 317 317 316 316 315 314 314 314
312 312 312 311 311 310 311 310 308 307 308 309 309 307 308 309 309 310 310 310 311 310 310 311 311 311 311 312 313 312 313 313 313 313 313 312 312 312 312 314 314 314 314 314 315 315 315 313 312 312 309 311 315 314 311 311 313 316 316 314 314 314 314 314 314 314 313 313 310 309 312 314 313 313 315 315 314 314 314 314 316 316 316 316 316 315 315 314
312 312 311 311 311 310 310 309 307 308 309 309 308 308 309 310 310 311 310 309 311 311 311 312 312 312 311 312 313 313 314 314 313 313 313 313 314 313 313 314 314 315 314 315 315 315 316 315 313 313 311 311 315 314 313 312 312 315 316 314 313 313 315 315 315 314 314 313 310 309 312 313 313 313 315 315 315 314 313 314 314 313 313 314 315 314 315 314
312 312 311 310 310 310 309 308 307 308 309 309 309 309 311 311 311 312 311 310 311 311 311 312 312 312 312 312 313 313 314 314 314 314 314 314 314 313 314 314 314 315 315 315 315 315 316 315 313 314 313 312 314 315 316 315 313 316 319 316 314 315 315 315 315 315 315 313 309 309 312 313 312 314 315 315 315 313 312 312 312 312 312 313 312 312 314 315
312 311 311 310 310 309 308 308 307 308 309 309 309 310 311 312 311 312 311 310 311 311 312 312 312 313 312 312 314 313 313 315 314 314 314 314 314 314 314 313 314 316 316 315 315 314 315 315 313 312 311 312 314 314 315 316 314 316 317 316 314 315 315 313 313 313 313 313 311 310 312 313 314 315 315 315 315 314 312 312 311 312 312 312 311 312 313 315
312 311 311 310 310 309 308 308 307 308 309 310 309 310 311 312 312 313 312 311 311 312 312 312 313 313 312 314 314 313 314 315 314 314 315 314 314 315 314 314 314 315 315 315 315 314 315 315 313 312 311 311 311 312 313 314 315 314 313 313 313 314 315 313 311 310 310 312 314 313 313 313 314 315 315 316 316 314 313 312 311 311 312 312 311 311 314 315
312 312 311 310 310 309 308 308 307 308 310 310 309 311 312 312 314 313 311 311 311 312 312 313 314 314 313 314 314 313 314 315 315 315 315 315 315 315 315 314 314 315 315 314 315 315 315 314 312 314 314 311 308 310 312 311 313 313 313 314 312 312 314 312 312 311 311 312 313 313 313 312 312 313 315 315 315 315 314 314 312 312 312 312 311 312 314 316
313 312 312 311 310 309 309 308 307 309 311 311 310 311 312 313 314 313 312 312 312 312 312 313 313 313 313 313 313 313 314 314 315 315 315 314 314 315 315 314 315 315 314 314 314 316 316 315 313 313 314 312 309 312 313 311 311 312 313 314 313 313 313 312 312 313 313 313 313 312 312 311 312 313 313 314 314 314 315 315 314 313 313 312 312 313 315 316
313 312 313 312 311 310 309 309 308 310 312 311 311 311 312 313 313 312 311 312 312 313 312 313 313 313 314 313 313 314 313 313 315 315 315 315 314 315 315 315 315 314 313 313 314 316 318 316 315 312 312 313 312 312 314 313 312 311 311 312 313 314 313 312 313 312 312 313 312 312 312 312 313 314 313 314 314 314 314 316 315 314 314 313 313 315 316 316
313 313 313 313 311 310 310 309 310 311 312 311 311 312 313 313 313 312 312 312 312 312 312 314 314 313 314 314 313 314 313 313 315 314 314 314 313 313 314 314 315 313 312 313 313 316 316 315 317 313 311 313 313 313 315 315 313 311 311 311 312 313 312 312 313 312 312 312 312 313 313 312 314 315 314 314 314 315 316 316 317 316 315 314 314 315 316 316
313 314 313 312 311 310 310 310 311 312 311 311 311 312 313 312 311 311 312 313 312 311 312 314 314 312 314 314 313 314 313 313 315 314 314 314 313 313 313 314 315 313 312 312 313 314 313 314 317 313 312 314 314 313 313 314 315 314 312 312 312 313 313 313 314 313 311 311 311 312 312 313 314 315 314 314 314 315 315 314 315 316 315 315 314 315 316 316
314 315 313 312 311 310 310 310 311 311 312 312 312 312 312 311 311 312 312 312 313 312 312 314 314 313 315 314 314 314 313 313 315 315 314 314 314 314 313 314 315 313 312 313 314 315 314 315 316 314 313 313 313 310 307 310 315 314 313 314 314 314 313 314 315 314 312 310 309 311 312 313 316 316 314 314 314 313 311 310 312 314 313 313 313 315 316 316
313 313 312 313 311 310 311 311 311 311 312 312 311 312 312 311 311 312 311 311 313 313 312 314 314 314 314 314 314 314 313 314 315 315 314 314 314 314 313 313 314 313 312 313 314 313 313 315 315 313 313 312 311 311 309 310 314 313 313 315 315 314 315 314 314 314 313 311 310 312 312 314 317 317 313 312 310 308 307 307 309 310 311 311 312 314 315 316
311 310 311 312 311 311 312 312 311 311 312 312 311 311 311 312 312 311 311 311 312 312 312 313 314 313 314 314 314 314 313 314 315 315 315 315 314 312 312 313 313 313 313 313 314 313 312 315 316 314 315 314 314 314 313 314 313 313 314 314 313 315 316 314 312 312 313 314 314 313 313 314 315 314 311 311 310 309 309 309 308 308 309 310 311 312 314 315
310 310 310 311 311 311 313 312 311 311 311 312 312 312 310 310 312 311 312 312 312 312 311 313 314 313 314 314 314 314 314 313 315 314 314 316 313 311 313 314 312 313 313 312 313 313 313 315 316 315 316 316 316 316 316 316 314 313 314 315 314 315 315 313 313 313 313 316 316 313 312 314 313 311 311 312 312 312 312 311 310 309 309 310 310 311 312 314
309 310 309 309 310 311 312 313 312 311 311 311 312 312 310 310 310 310 312 313 313 312 312 313 313 313 313 314 314 315 314 314 315 315 314 315 312 311 313 314 313 313 312 311 312 313 314 316 316 315 316 316 316 316 317 318 316 314 315 316 315 315 315 315 314 314 314 316 316 314 313 314 313 311 311 312 313 313 313 313 312 311 310 310 310 311 311 311
308 308 308 309 309 310 311 312 312 311 311 311 311 312 311 311 310 309 311 313 312 312 313 313 313 312 313 314 314 315 315 315 315 314 314 314 312 310 310 312 314 313 310 310 313 312 313 314 315 316 316 316 315 317 319 319 318 316 316 317 316 315 315 316 315 315 315 315 315 315 315 315 314 313 312 313 313 314 314 315 314 313 312 311 310 311 311 310
307 307 307 308 309 309 310 312 312 311 310 310 310 311 311 311 310 309 310 311 312 313 312 312 313 313 313 314 314 314 315 316 314 314 315 315 312 310 309 310 312 311 310 312 314 313 312 313 314 316 316 315 316 320 320 318 318 318 317 317 317 315 315 316 315 316 316 315 315 315 316 316 315 313 313 313 313 314 314 315 315 314 313 312 311 311 312 311
305 306 306 306 308 308 310 312 312 312 311 310 311 312 311 311 311 310 310 310 312 313 312 312 313 312 313 314 314 314 315 316 315 315 316 315 313 311 310 310 310 310 310 312 312 312 312 312 314 315 315 315 317 320 320 318 318 318 317 317 317 316 315 315 315 315 315 316 315 315 316 317 316 315 314 314 314 314 314 314 313 313 313 312 312 313 313 313
303 305 305 306 307 308 310 312 312 312 311 311 311 311 311 311 311 311 311 311 311 312 312 313 313 312 314 314 314 314 315 315 315 315 314 313 312 311 311 310 310 310 310 312 312 312 312 313 315 315 314 315 316 317 318 318 318 318 319 319 318 316 315 315 315 315 315 315 315 315 316 316 316 316 316 315 314 314 313 313 312 312 312 312 312 313 314 314
303 304 305 306 307 309 311 312 312 312 311 311 311 311 311 311 311 311 312 311 311 312 312 313 313 313 314 315 313 314 315 315 316 315 313 313 312 311 312 312 311 311 311 312 314 313 311 312 314 313 312 314 316 317 316 315 315 315 318 320 318 317 316 315 315 315 315 315 316 317 317 316 315 316 317 316 314 313 313 313 313 312 312 312 312 313 314 315
303 304 304 306 308 309 310 312 312 312 312 311 310 311 311 311 311 311 311 311 312 313 313 313 313 313 313 314 314 314 316 316 315 315 312 312 312 312 312 312 312 312 311 311 312 312 311 311 312 312 312 313 316 317 315 313 313 312 314 317 317 317 316 315 315 315 315 315 316 316 316 316 315 316 317 315 313 313 314 313 312 312 312 312 312 313 314 315
Wind_Speed
39 39 40 42 44 47 50 50 47 47 48 48 47 47 46 44 43 41 38 39 39 36 34 31 31 28 24 20 19 17 18 18 14 16 18 15 12 10 15 21 22 19 7 1 3 5 4 3 2 5 4 6 8 7 9 9 8 6 4 6 6 6 5 5 8 5 3 7 11 13 16 13 9 10 7 6 7 4 6 8 7 10 11 7 5 9 14 18
39 38 40 42 45 47 50 50 47 47 49 49 49 48 47 46 44 42 39 38 40 38 36 32 30 27 23 19 17 15 16 17 12 16 21 16 14 13 12 15 19 24 16 2 3 4 1 1 3 6 6 7 9 7 8 8 8 8 5 6 7 6 1 1 4 4 2 7 13 14 15 11 8 12 10 7 9 8 7 9 9 9 11 12 8 9 13 18
40 38 40 42 45 48 50 51 47 46 49 50 50 48 47 46 45 44 40 39 40 40 38 35 30 26 24 20 15 15 16 14 11 19 24 19 15 14 14 14 12 19 20 8 4 4 3 3 4 6 8 8 8 7 8 7 8 9 6 6 7 6 5 3 5 5 3 8 14 14 13 8 7 12 11 9 9 10 9 10 11 12 13 13 12 10 13 18
42 40 41 41 45 49 50 51 47 46 47 49 50 48 47 46 45 45 42 40 39 39 39 36 31 26 23 20 15 13 11 6 11 21 23 21 19 16 18 18 10 11 15 11 7 5 5 5 5 5 7 7 7 7 8 8 6 5 5 4 2 4 6 5 6 7 5 8 12 14 12 8 7 10 11 9 7 9 11 12 13 15 15 15 15 12 13 19
43 41 41 41 44 48 51 50 48 47 45 47 48 48 48 46 45 44 43 41 38 38 37 36 32 25 21 18 15 11 7 1 9 21 19 21 24 18 19 18 11 11 12 14 12 8 7 6 6 6 7 7 6 6 9 10 6 4 5 3 6 2 3 6 6 7 8 8 12 14 12 10 8 8 11 12 8 4 7 11 11 12 13 17 18 14 13 19
45 43 42 41 43 47 50 50 48 47 44 45 47 48 47 46 45 43 43 42 39 38 37 37 33 26 21 18 15 12 11 1 4 16 16 21 25 18 18 15 14 16 14 15 13 11 9 7 8 8 8 7 7 7 6 9 8 6 5 0 5 5 3 5 5 8 7 7 12 12 11 11 10 9 11 15 11 2 4 9 12 10 11 15 18 16 14 17
46 44 43 42 43 45 48 48 48 47 44 44 45 48 47 46 45 42 43 41 39 39 36 36 32 27 23 18 15 16 16 7 3 13 16 20 24 20 18 16 18 18 14 15 15 14 11 10 11 10 9 6 8 8 5 6 9 8 3 3 1 5 3 3 4 9 7 6 10 10 9 10 11 9 8 15 14 3 2 7 12 13 12 14 15 16 16 15
46 44 43 42 43 44 47 48 47 46 44 43 43 46 48 47 46 43 42 40 38 37 35 34 31 27 22 18 17 16 18 13 7 10 17 20 25 25 20 18 21 18 16 17 16 16 12 12 13 10 9 6 7 8 6 6 8 10 4 4 3 3 3 3 3 8 7 5 8 9 9 9 10 6 5 14 14 10 8 5 7 13 16 15 14 15 17 16
46 43 41 42 44 45 47 47 47 45 42 41 41 43 46 46 45 43 41 39 37 35 34 33 30 26 21 19 18 12 17 18 11 7 15 20 24 26 22 20 23 20 18 19 17 17 12 11 12 11 7 4 6 7 8 8 6 8 4 5 4 3 3 3 3 6 5 5 8 9 9 6 6 6 7 13 12 13 15 9 6 9 14 17 16 15 17 18
45 42 40 41 44 45 46 47 47 44 41 41 40 41 41 43 43 42 40 37 36 34 33 31 29 27 22 21 16 9 17 21 16 9 12 20 23 21 19 20 24 21 20 20 18 19 15 11 11 13 9 4 4 5 8 8 2 5 8 7 5 4 3 1 3 5 4 5 7 8 8 4 5 6 6 11 15 15 16 15 12 9 10 14 16 16 17 18
44 43 41 41 43 44 45 46 46 43 41 40 39 40 38 38 40 40 38 36 35 33 32 31 29 27 23 24 20 11 17 23 22 17 13 20 23 20 17 19 22 20 20 19 19 20 17 14 11 11 8 3 4 5 5 6 1 7 11 9 5 4 3 2 3 6 4 4 7 5 5 4 5 6 5 10 16 17 15 16 18 15 11 11 14 16 18 19
45 45 42 41 42 43 43 44 46 43 41 39 38 39 37 36 37 37 36 34 33 32 30 29 27 26 23 26 28 22 19 21 21 20 16 19 21 20 17 18 19 18 18 18 18 18 16 15 11 9 8 4 3 4 4 6 5 8 10 6 6 4 4 4 3 5 3 4 8 4 3 6 8 10 9 10 12 15 16 14 17 20 17 14 14 16 18 19
45 45 43 40 40 41 41 42 45 44 42 39 37 36 35 35 35 34 34 32 32 31 29 27 24 25 23 20 24 24 18 14 14 15 18 19 17 15 15 17 17 16 17 16 16 16 15 14 11 10 11 5 0 3 3 7 7 8 8 4 6 5 6 6 3 5 3 4 9 5 3 7 12 15 13 13 12 12 15 13 14 18 17 17 18 19 19 20
45 45 43 39 38 39 40 41 42 43 42 39 36 34 32 34 34 32 31 30 30 29 27 26 26 25 20 11 17 22 16 11 11 12 15 18 17 13 12 15 17 16 16 16 15 15 14 14 12 10 10 5 2 4 3 6 6 7 6 4 6 6 6 7 4 6 4 6 9 4 4 5 8 14 12 14 15 12 12 12 13 14 15 17 20 21 21 21
45 44 43 38 38 41 41 41 41 41 40 38 35 33 32 32 32 30 29 29 29 28 27 27 27 23 14 8 14 20 19 17 14 11 12 15 17 15 13 15 16 15 14 15 14 14 14 13 12 9 5 5 6 5 4 4 5 7 6 6 7 6 5 7 5 5 2 5 8 5 5 5 5 11 9 13 16 13 11 11 12 12 13 15 19 21 22 22
45 45 43 39 40 43 44 42 39 38 36 34 34 33 32 30 29 30 30 31 29 29 29 27 28 22 9 8 13 18 23 25 19 12 11 14 17 16 15 15 15 14 13 13 12 12 13 12 9 7 6 6 6 5 5 4 5 6 7 6 8 8 5 5 5 4 2 4 8 7 4 4 3 8 6 10 13 12 11 11 11 11 11 13 16 20 22 23
46 46 43 40 41 43 45 41 36 36 33 34 35 32 30 27 29 31 29 30 30 30 26 22 27 18 6 9 13 17 22 27 26 18 12 13 17 16 15 16 16 14 12 11 10 10 13 11 7 6 5 5 6 6 6 6 7 6 7 6 6 8 7 4 4 4 5 4 8 9 6 7 3 7 7 8 10 11 12 12 12 11 12 12 13 16 20 23
47 47 43 41 41 42 44 41 38 36 34 36 33 29 28 26 28 28 28 30 29 27 19 18 25 12 8 14 14 14 21 25 27 24 16 13 16 16 16 17 16 15 12 10 8 10 11 9 7 6 5 7 7 7 7 7 8 8 8 6 4 7 9 6 3 5 8 7 7 10 10 13 9 5 8 10 10 10 11 11 10 11 12 13 13 15 19 21
48 46 43 41 40 41 42 43 42 38 38 37 30 30 29 26 25 21 25 33 31 21 10 19 30 8 2 16 18 14 19 22 22 25 22 15 16 17 15 15 16 16 13 8 7 10 9 6 5 6 7 9 9 10 9 4 6 9 10 9 6 7 7 4 3 3 5 6 8 11 10 12 13 10 8 11 12 10 9 9 8 10 11 12 14 16 18 22
48 44 42 40 41 43 42 45 44 40 41 38 37 37 29 27 20 11 24 35 32 19 6 22 36 10 5 13 25 21 17 18 20 26 25 18 18 18 15 14 15 14 10 7 7 9 10 6 6 8 9 11 12 13 8 1 2 5 7 7 5 5 4 4 5 2 3 4 9 12 12 12 13 12 10 10 12 11 11 11 11 12 13 14 15 16 19 23
48 43 42 41 44 43 42 46 44 42 41 39 45 36 25 33 19 15 33 28 22 17 6 24 37 16 1 11 26 25 17 15 17 26 26 21 20 17 14 15 12 9 6 7 8 7 8 6 8 11 8 7 10 10 5 0 2 4 5 5 4 4 2 3 4 3 3 4 6 8 10 14 13 11 11 11 11 12 14 14 15 16 16 16 16 17 19 22
46 43 43 43 44 40 42 48 44 42 39 39 45 24 18 31 15 24 42 17 10 15 5 22 32 16 5 9 23 24 17 14 13 23 27 24 24 16 13 14 10 8 6 8 8 5 6 8 10 10 4 4 4 4 4 4 4 4 5 5 5 3 3 3 3 4 3 3 3 2 6 11 12 12 13 14 16 16 18 19 18 18 18 18 18 18 20 22
46 44 45 45 43 39 44 49 42 40 39 42 41 19 17 25 11 28 38 13 11 15 6 22 29 18 10 9 21 23 16 15 13 21 28 26 24 17 15 15 10 9 8 9 9 6 7 6 5 7 8 6 4 4 7 5 6 6 5 6 4 5 4 2 3 5 2 2 2 3 5 9 11 11 12 17 19 18 18 18 18 18 19 19 17 17 20 23
47 46 47 46 42 40 45 48 40 37 40 42 34 20 22 21 17 33 28 9 11 10 6 21 24 22 18 12 22 23 15 15 14 21 31 28 21 15 14 16 11 9 10 13 12 9 5 1 0 5 9 9 7 7 9 7 7 7 7 6 3 6 5 1 4 6 2 2 2 4 6 8 9 11 12 13 14 14 14 14 16 20 23 23 22 22 23 25
48 48 47 46 41 41 44 44 40 39 40 38 29 24 24 22 29 37 20 7 10 6 6 17 15 16 20 17 23 21 11 11 13 22 34 29 21 15 12 14 11 9 13 15 13 9 3 1 1 4 7 10 9 8 9 8 7 7 7 6 2 3 6 6 7 5 2 4 3 2 5 6 6 11 12 7 6 9 12 12 15 19 22 25 28 29 29 29
49 48 47 46 43 45 43 39 41 41 39 37 32 30 29 32 38 31 13 5 7 6 7 15 14 14 19 17 21 18 7 9 14 25 35 29 22 17 10 9 5 7 13 12 7 4 2 3 2 4 7 8 8 8 9 8 7 5 4 3 2 2 6 7 7 5 3 2 2 2 6 5 2 6 8 6 4 7 9 10 14 17 16 20 25 29 29 30
49 48 48 47 47 50 45 39 43 42 38 37 36 35 36 42 38 21 8 2 6 10 10 11 12 17 19 15 21 16 3 11 15 20 32 25 18 15 10 8 4 3 8 7 3 1 4 5 3 5 7 7 7 7 8 9 8 3 0 2 5 5 7 8 7 5 2 1 2 3 4 5 5 4 4 5 4 7 9 9 12 15 15 15 19 24 26 28
50 48 48 49 49 49 41 39 46 45 41 37 38 41 43 42 29 13 6 3 6 10 10 9 9 15 16 15 24 14 4 15 13 13 28 23 16 12 8 11 10 6 6 5 6 2 4 6 6 8 8 7 6 2 5 10 7 1 1 1 4 4 5 7 5 3 0 0 3 5 4 4 7 4 4 4 6 9 10 10 11 13 13 14 16 19 21 22
52 50 48 49 48 44 35 36 45 43 38 37 38 43 45 35 19 6 3 4 6 6 7 12 11 14 15 15 20 12 5 10 5 11 26 21 15 9 4 10 12 9 4 1 3 1 2 3 4 6 6 5 3 5 2 4 3 3 4 4 5 3 3 4 4 3 2 4 5 6 7 5 6 5 4 5 6 9 9 9 8 8 9 12 14 15 16 18
52 51 50 50 50 45 33 31 40 39 36 37 40 45 41 24 11 6 5 4 7 5 6 12 13 15 17 14 13 11 8 5 4 15 20 13 12 7 4 9 10 9 4 3 5 3 2 2 2 2 2 2 5 5 6 3 4 9 8 7 6 4 3 3 3 2 4 6 3 4 4 4 5 5 6 4 3 5 7 8 5 7 7 8 11 12 14 15
52 51 51 51 51 46 33 31 41 41 38 39 43 45 32 12 5 7 5 5 6 5 5 10 14 17 20 17 11 11 10 5 8 17 14 8 9 7 7 9 6 6 5 3 5 4 4 4 2 2 2 3 4 5 6 4 4 6 5 6 5 3 3 3 4 3 6 6 1 2 1 4 6 5 3 1 1 0 4 5 3 5 6 5 6 10 12 13
52 51 51 50 48 41 33 37 46 42 37 41 46 41 20 5 5 6 5 7 7 7 8 12 15 16 20 19 12 11 10 7 10 14 11 9 8 9 10 8 7 7 5 6 5 3 4 4 2 2 2 4 4 5 5 2 1 3 5 8 5 4 5 5 5 5 6 3 2 1 0 3 7 8 8 6 4 3 4 5 3 1 2 3 4 8 10 12
51 50 49 48 46 38 32 40 48 40 35 42 40 26 10 5 8 8 8 8 4 6 11 13 15 16 19 17 11 13 11 8 12 13 12 11 8 10 11 9 12 10 6 8 7 4 4 2 3 4 2 6 6 5 5 3 5 6 7 8 6 6 5 6 6 5 5 1 2 0 1 3 6 6 10 13 8 2 3 5 6 5 5 4 4 7 10 11
50 48 48 46 43 38 33 42 47 38 39 42 28 11 7 7 8 9 10 6 2 6 12 14 15 17 18 15 11 14 10 6 12 13 12 12 9 10 10 9 14 10 5 9 7 7 7 3 5 4 3 6 6 2 1 4 7 5 2 3 5 5 4 5 5 4 4 2 2 1 1 4 4 0 2 7 4 1 3 6 9 10 10 9 9 9 10 11
48 46 45 43 40 36 35 44 45 39 43 38 16 6 9 9 8 11 10 7 6 8 13 17 17 15 15 11 11 15 7 4 12 11 10 12 10 11 11 10 14 11 7 8 5 7 9 4 2 1 1 4 4 0 2 3 6 2 1 0 3 2 1 1 1 1 1 1 2 3 3 5 4 4 5 6 4 4 5 6 9 12 13 14 14 12 10 10
47 45 41 39 40 36 37 46 43 41 43 28 9 8 10 8 8 9 8 8 9 12 16 17 14 13 12 7 10 15 4 3 13 10 8 12 11 12 12 10 13 12 10 9 4 4 7 2 2 2 2 2 1 1 2 0 3 2 1 2 2 1 3 3 1 2 1 4 3 5 4 5 4 7 8 7 4 4 5 5 8 11 12 13 14 12 10 10
47 43 39 38 41 38 40 46 42 41 36 17 8 11 10 8 6 6 9 11 12 16 16 13 9 11 13 8 10 16 8 6 13 10 8 10 10 13 14 11 14 16 11 7 3 2 5 3 2 1 3 3 2 1 2 3 1 2 3 4 3 1 1 1 2 1 2 5 3 4 5 5 4 4 3 4 5 6 6 6 6 8 8 10 13 12 12 12
47 41 36 36 39 38 40 43 41 39 25 8 10 14 10 6 3 6 13 15 15 17 12 9 8 9 12 10 10 15 13 10 11 10 9 9 7 12 16 11 12 16 9 0 1 2 3 4 2 2 2 3 1 1 3 1 2 1 1 1 2 2 3 3 3 2 3 5 4 4 6 5 5 4 2 3 6 7 7 6 7 8 9 11 12 12 13 14
47 36 27 34 40 39 40 40 38 32 16 6 12 12 9 6 5 10 20 18 14 14 10 8 8 6 9 11 12 14 13 11 12 9 8 8 6 10 16 11 8 14 10 2 0 3 2 1 2 1 1 2 2 3 5 4 2 1 1 1 0 1 2 2 3 3 4 5 5 4 4 4 6 7 7 8 7 6 8 6 5 6 9 13 13 13 15 16
44 25 17 37 44 38 39 36 28 19 9 9 12 8 8 6 4 11 23 21 11 7 8 9 10 8 8 11 13 13 12 11 12 9 7 9 7 5 12 12 8 11 8 4 1 2 1 0 3 2 0 2 4 3 4 6 6 4 4 5 4 2 0 1 3 2 2 4 5 5 5 4 3 5 8 10 8 5 4 2 2 3 7 11 14 16 17 17
39 13 12 41 46 39 40 28 16 12 8 11 10 6 7 7 7 9 14 15 8 1 3 8 11 10 9 11 13 11 10 9 11 9 6 10 10 5 8 12 11 12 8 3 1 3 1 1 4 4 3 4 2 1 2 0 2 3 4 6 7 5 3 3 4 2 0 3 3 4 6 4 1 2 5 6 3 0 1 1 2 2 5 10 14 16 18 19
29 6 19 48 47 44 39 17 9 11 7 8 6 4 6 8 10 10 7 8 6 2 1 5 9 10 8 10 11 11 10 8 10 11 7 10 12 6 6 10 14 17 11 3 2 2 2 2 5 4 3 2 1 2 2 1 1 1 2 3 4 6 6 5 5 3 3 2 1 2 5 4 1 1 2 2 1 1 1 2 3 3 6 10 13 16 19 20
17 8 27 51 50 46 31 8 7 9 5 6 7 6 4 5 8 11 8 7 6 4 4 5 8 8 8 9 10 13 13 8 10 12 10 10 9 4 8 13 16 17 10 4 4 3 3 3 4 3 2 2 1 1 2 1 0 2 4 4 5 6 6 4 2 2 3 4 3 3 5 5 1 1 1 3 2 3 5 6 7 7 8 10 13 17 20 22
16 17 28 45 50 42 21 6 10 12 7 9 9 4 3 3 6 11 11 10 7 6 7 6 7 7 6 8 10 13 14 8 8 11 8 8 6 4 11 19 18 14 10 7 8 9 5 3 5 5 3 2 1 1 1 1 3 4 3 4 5 3 3 2 0 1 3 6 7 5 7 6 1 2 1 2 3 4 6 8 10 11 10 10 13 17 20 23
16 15 22 41 50 39 16 5 7 9 9 10 9 8 6 3 3 6 10 10 6 7 8 5 7 7 6 8 8 11 14 9 7 9 6 5 4 3 9 18 20 14 7 7 13 14 7 3 5 6 7 7 6 8 8 5 4 3 1 3 6 6 6 5 3 3 4 6 7 5 8 7 1 2 3 3 3 5 6 6 9 12 12 12 14 17 20 23
8 4 10 25 34 29 15 8 4 5 10 11 7 10 11 6 3 3 6 7 4 7 7 5 7 8 8 11 10 10 15 12 4 6 8 7 4 1 5 13 17 13 5 8 17 15 3 2 6 8 9 10 12 13 10 8 7 8 9 9 11 13 12 8 4 5 7 6 5 8 12 12 5 4 4 5 6 6 6 7 9 12 14 14 16 17 18 21
3 1 6 9 12 13 10 9 7 6 12 15 9 9 14 12 7 4 5 4 4 7 5 4 9 11 10 14 12 9 15 12 3 5 10 9 4 3 4 7 9 9 7 9 15 11 2 4 9 12 12 11 12 10 11 12 11 14 16 14 14 15 13 10 8 11 11 7 6 11 15 16 12 7 7 8 7 6 6 7 9 11 13 15 17 18 18 20
3 3 8 8 5 5 7 10 12 11 15 17 9 10 17 15 12 10 5 2 5 8 5 3 10 15 15 16 11 8 13 10 6 8 9 7 5 5 4 1 2 5 5 7 10 5 3 7 9 11 13 12 9 6 10 12 11 12 14 14 15 15 14 13 13 14 12 8 10 15 18 18 16 12 11 10 9 9 9 8 8 9 12 14 16 18 19 19
5 5 8 10 3 2 5 7 11 12 14 16 9 10 18 18 15 13 7 4 5 8 7 7 12 17 17 16 11 9 11 11 9 9 7 7 7 6 5 2 1 3 3 5 5 1 2 6 8 8 10 11 5 5 7 11 11 12 14 13 13 15 16 17 15 15 16 14 14 20 21 18 14 11 12 15 16 14 9 7 8 11 14 14 15 17 18 20
5 5 7 9 3 3 7 7 9 9 10 12 9 8 14 18 17 13 9 9 10 9 9 9 12 16 16 15 14 11 13 14 12 9 8 7 6 5 4 4 4 3 3 4 3 0 2 4 3 4 7 9 5 4 3 6 7 9 11 10 11 14 16 16 14 15 17 17 18 21 19 16 13 11 12 16 16 11 7 7 10 12 14 15 15 17 19 20
6 5 9 9 3 5 9 7 8 8 7 9 10 9 13 17 18 13 7 8 10 9 11 10 10 13 12 14 16 14 14 14 9 12 17 14 11 12 8 6 8 7 4 5 4 2 3 2 1 4 6 8 7 7 4 3 1 2 4 8 12 13 13 14 14 15 15 16 19 18 14 14 11 9 9 9 9 9 7 9 12 13 16 18 17 19 21 21
8 7 8 8 4 5 8 6 7 9 7 8 10 11 11 14 18 14 7 6 7 5 8 10 10 10 10 15 18 14 12 10 5 14 25 21 17 19 14 13 18 14 8 7 6 4 6 5 3 5 7 7 6 8 8 6 1 3 7 12 16 16 16 15 16 17 17 16 15 12 13 13 6 4 6 5 6 8 8 12 16 19 22 21 19 20 21 22
Wind_Direction
213 212 212 211 211 212 210 209 209 208 206 205 204 205 206 206 208 210 211 210 208 209 213 217 218 218 218 215 220 227 227 228 236 239 230 212 189 187 209 210 214 226 226 5 256 212 186 182 217 234 226 211 211 217 215 218 219 209 219 224 223 225 208 186 186 170 128 136 146 160 173 184 171 176 193 188 199 199 176 186 194 201 210 223 191 172 175 184
209 209 211 209 210 212 211 209 209 209 208 206 206 207 207 208 208 209 210 210 208 209 213 215 217 221 219 215 222 229 225 222 242 248 222 196 183 188 201 205 210 220 222 215 222 210 188 267 281 233 216 207 211 212 212 214 210 212 222 218 225 222 193 30 153 116 49 150 151 161 177 192 179 170 180 193 198 194 193 197 203 201 205 220 210 187 189 190
208 208 210 209 208 211 211 209 208 208 207 207 207 207 208 210 210 210 210 209 209 211 214 217 218 224 223 218 227 232 224 222 250 243 216 197 191 191 191 194 206 216 216 206 197 230 249 262 282 241 224 218 203 198 208 204 207 221 230 227 219 176 123 70 103 89 59 134 148 160 170 188 174 163 175 200 198 195 209 199 196 200 196 208 208 193 191 190
207 208 208 209 208 208 209 208 207 207 206 206 206 206 209 210 211 212 211 211 211 213 215 217 219 224 224 220 227 228 215 232 253 230 213 204 196 190 191 191 202 213 211 203 199 247 251 243 263 242 232 229 196 189 205 195 202 220 221 252 256 148 138 122 108 104 107 134 153 154 160 178 165 164 178 196 201 199 216 205 197 205 194 195 202 193 188 189
207 208 206 209 209 207 207 206 206 208 206 204 205 206 208 209 212 212 212 212 213 215 215 216 218 221 222 217 220 210 172 59 243 218 211 205 195 191 193 190 201 209 206 198 202 245 247 240 249 231 229 228 197 202 210 195 204 227 220 313 358 351 137 127 120 120 121 135 149 149 165 174 157 178 190 199 213 187 204 202 193 202 193 195 201 193 186 191
206 207 206 207 208 207 206 205 206 209 207 205 204 205 207 209 211 211 211 212 213 216 217 218 217 218 219 214 213 190 169 142 218 203 206 200 191 194 204 195 193 198 199 196 209 243 239 229 224 211 216 221 206 205 203 191 205 230 214 197 3 351 62 119 141 145 132 141 156 157 166 162 162 192 198 209 223 134 145 187 188 188 179 191 204 202 193 194
206 206 206 205 207 208 205 204 206 209 210 207 206 205 207 209 210 210 211 212 213 215 218 219 216 219 218 210 205 186 195 218 132 179 192 192 191 202 215 200 191 200 205 202 215 234 230 222 217 206 208 216 212 205 195 184 203 237 233 149 75 14 66 117 154 162 147 146 154 152 158 168 185 192 191 215 227 225 187 189 196 199 188 194 208 210 207 203
205 205 207 205 206 208 205 203 205 208 210 208 207 207 207 208 209 209 211 212 213 213 216 217 215 217 214 208 199 188 208 206 133 159 173 181 194 206 217 206 207 217 219 214 219 227 227 225 221 209 210 214 204 194 185 178 204 234 238 125 123 47 86 113 143 160 152 154 147 150 166 176 193 184 190 220 223 224 227 195 190 203 202 209 214 212 213 213
204 205 207 207 206 206 204 203 205 208 209 207 208 209 208 209 209 208 210 212 211 212 213 213 214 214 210 207 196 193 217 194 155 161 162 176 194 205 220 224 226 227 219 220 220 220 221 228 227 218 225 232 203 186 182 191 210 217 173 108 126 88 99 120 141 158 159 167 158 165 174 167 189 203 227 224 214 216 223 213 182 184 196 207 212 213 215 216
203 205 205 207 206 205 204 203 204 206 207 207 208 210 210 209 209 208 208 210 210 211 211 211 212 211 206 201 188 197 223 198 183 194 168 179 188 200 225 239 236 223 212 219 218 213 212 220 232 231 240 272 228 199 185 198 207 153 130 105 114 95 107 156 154 162 156 159 175 181 170 151 174 205 229 201 201 215 220 219 209 184 184 199 206 211 214 217
202 203 203 205 205 204 203 203 203 204 206 207 208 210 210 209 210 208 207 208 208 208 210 211 211 213 211 201 193 201 214 203 204 213 186 177 185 198 225 242 236 219 209 216 216 210 210 216 234 239 237 263 227 201 187 200 138 136 137 113 113 107 122 154 144 164 170 159 184 191 158 144 157 204 221 179 197 213 211 217 218 212 205 202 207 212 214 215
201 201 201 204 204 203 203 202 202 203 204 206 208 210 210 209 210 208 205 204 205 205 207 208 212 217 210 199 205 212 205 204 215 220 201 182 188 202 223 236 229 217 211 215 216 213 215 216 225 239 235 257 203 176 185 185 152 150 161 146 145 159 166 168 147 174 209 175 177 184 173 185 190 210 209 182 197 203 201 210 216 220 220 216 218 219 219 218
199 200 200 202 203 203 203 202 201 202 204 205 207 207 208 209 210 207 202 200 200 202 202 204 213 211 198 196 209 208 196 205 220 217 206 198 196 198 214 225 216 213 210 210 215 214 217 216 218 233 238 267 170 165 156 152 151 161 189 201 166 194 196 170 155 182 210 168 174 195 231 215 206 201 189 183 193 189 195 204 209 219 219 219 225 225 225 223
198 199 198 198 201 201 199 197 198 200 202 204 203 201 201 205 208 204 198 196 196 199 198 201 205 195 189 200 202 194 192 218 222 205 203 205 203 195 203 214 209 208 208 209 213 211 212 212 215 226 235 251 150 152 132 140 171 171 186 216 196 215 185 147 150 185 191 163 176 210 255 239 185 170 166 181 188 178 188 198 201 210 212 220 226 226 227 227
196 197 195 194 196 195 192 191 193 195 197 200 199 195 193 198 202 197 193 191 191 194 192 194 191 179 183 210 199 201 212 224 222 203 200 201 201 200 199 205 204 203 208 210 210 208 205 202 208 211 202 188 157 157 152 157 197 185 187 204 208 222 165 137 154 186 201 160 185 214 236 251 139 132 151 181 186 183 193 198 196 200 204 216 225 226 227 227
195 195 192 191 192 192 190 189 191 192 196 197 195 194 193 197 197 189 186 185 183 186 186 185 176 165 184 208 194 206 214 217 218 205 196 195 197 200 199 198 199 201 203 205 205 202 196 188 195 191 158 159 171 190 180 169 198 199 208 206 197 208 181 149 158 188 213 155 199 224 249 261 135 123 161 185 188 192 201 204 199 202 205 212 224 228 228 229
194 192 188 188 190 191 191 189 187 188 190 186 187 191 190 186 183 177 175 175 176 176 176 176 170 167 218 211 191 203 209 213 213 206 194 188 191 195 195 191 191 196 190 191 194 185 182 175 178 185 173 182 196 210 197 188 200 193 212 218 191 203 203 175 149 175 194 191 211 217 241 260 182 129 162 186 188 193 206 212 208 210 214 217 222 228 231 231
191 189 185 186 189 190 191 188 185 183 180 177 181 179 168 161 161 161 161 163 162 162 163 170 170 176 239 206 194 201 208 211 209 207 202 187 186 186 190 189 184 182 170 168 172 170 174 169 182 197 192 200 201 209 208 203 205 187 194 212 187 203 218 208 158 157 186 212 222 204 219 247 240 173 159 172 182 193 206 211 212 216 220 222 223 227 232 233
189 187 184 185 188 188 188 184 182 181 175 175 173 155 144 141 143 149 159 159 155 158 173 180 175 169 294 193 191 192 207 213 205 204 203 193 183 177 183 188 178 171 159 155 167 172 172 161 196 214 201 200 201 209 215 222 219 192 185 207 209 204 213 190 111 125 191 207 218 216 222 238 244 234 195 173 179 198 209 208 214 220 223 225 225 227 231 235
187 185 182 183 183 183 182 179 180 178 174 174 161 143 139 143 140 157 170 166 168 171 176 180 180 180 33 171 187 192 197 202 199 198 200 198 182 169 174 176 170 175 174 166 166 171 180 180 198 209 210 205 204 211 217 323 281 208 188 210 227 210 196 138 104 115 212 215 216 223 236 243 244 243 228 196 186 200 216 222 225 226 228 229 229 230 233 237
185 182 180 180 180 181 181 179 180 176 177 176 160 149 160 162 154 177 170 169 185 183 166 179 181 189 174 170 185 187 177 177 192 196 197 194 179 165 168 169 167 184 184 150 137 147 181 208 209 205 213 205 199 207 211 322 261 233 218 212 225 224 182 98 97 126 174 236 224 216 240 250 250 248 243 230 219 218 222 226 230 230 231 231 230 231 233 237
183 181 179 179 180 182 180 181 181 175 178 178 166 162 176 170 173 175 164 151 186 181 157 176 181 192 217 189 184 179 168 164 180 192 190 181 176 172 168 176 182 176 151 134 131 141 191 221 213 190 157 114 137 173 197 234 237 233 229 216 221 205 133 101 106 123 156 230 226 198 254 258 256 253 244 238 237 235 232 234 236 235 236 235 231 228 232 238
181 179 177 179 180 179 178 180 178 175 179 178 174 177 175 175 182 165 156 123 159 174 153 170 180 193 198 187 180 175 172 172 169 184 184 175 178 182 172 180 188 162 157 172 169 171 193 216 205 150 130 132 131 173 196 218 231 230 225 222 214 166 166 206 164 143 166 241 306 332 292 270 261 255 245 237 235 235 234 235 237 235 234 234 228 227 232 238
177 177 176 178 177 175 179 181 180 182 182 179 181 177 164 173 163 154 150 110 153 174 179 176 182 192 195 188 181 180 184 180 170 182 183 175 176 180 177 184 183 160 175 191 189 190 184 152 338 145 158 174 170 180 197 209 220 224 226 234 219 164 169 65 125 147 168 203 266 304 286 272 251 241 243 231 223 226 224 224 231 234 236 237 234 234 236 239
175 176 176 175 175 176 178 181 186 187 182 180 182 166 158 167 157 153 147 111 155 163 180 185 183 190 194 189 182 182 187 181 175 183 181 177 176 171 175 187 185 182 186 187 194 203 188 79 168 155 167 186 183 184 197 206 216 218 218 227 268 174 157 110 130 160 213 210 192 234 259 269 233 224 233 211 188 219 214 213 230 235 237 239 240 241 240 241
175 174 175 174 175 176 174 178 185 181 179 183 175 158 158 159 155 157 152 121 170 158 157 183 184 188 191 186 177 172 183 190 185 185 181 179 181 173 166 176 190 200 181 174 195 211 135 125 154 152 163 178 190 204 196 198 219 222 209 188 119 143 152 141 161 187 237 228 133 193 243 262 229 210 212 184 184 223 213 213 230 232 229 230 237 241 241 242
174 172 172 172 173 174 172 176 179 175 180 183 167 157 159 157 158 165 161 146 186 161 154 175 181 187 187 179 173 169 158 167 170 184 183 180 183 183 178 169 167 185 158 148 186 174 113 138 152 157 168 174 195 215 186 188 220 226 28 163 148 149 162 163 183 208 239 72 119 200 235 268 265 226 165 164 211 237 227 223 228 228 220 217 231 239 241 243
172 170 170 172 174 174 172 174 176 176 179 173 160 159 159 159 165 174 169 186 166 149 157 170 170 177 174 167 176 180 118 151 158 180 183 182 178 185 202 190 177 156 140 158 189 166 99 156 166 156 170 186 196 243 168 182 213 230 23 164 136 138 165 172 192 211 127 332 218 194 185 249 262 235 154 175 237 247 239 234 229 219 207 209 225 234 239 243
171 170 170 171 173 173 174 177 177 175 171 161 157 160 160 161 166 169 206 204 146 133 155 161 161 167 164 165 179 188 144 160 170 167 177 184 178 181 215 190 172 141 111 46 160 78 32 161 164 154 176 184 136 19 13 194 196 155 151 105 93 107 137 167 206 196 162 241 238 181 177 238 267 243 198 187 226 238 238 239 227 192 184 205 220 228 235 238
171 171 171 170 172 173 174 177 174 167 158 157 158 159 159 160 163 172 210 192 148 140 142 156 166 166 165 168 180 187 171 154 114 147 166 182 179 180 133 143 146 133 123 49 80 69 49 100 75 100 155 144 106 58 17 10 121 144 150 117 106 123 130 167 208 194 212 233 228 144 166 243 268 250 221 196 211 229 234 237 206 151 163 204 221 232 238 237
171 171 172 170 172 173 170 172 171 162 154 157 159 159 159 157 180 191 175 143 138 137 138 159 165 165 172 177 175 181 176 137 137 152 159 168 172 171 147 142 139 135 156 147 106 84 95 121 124 83 108 139 120 84 37 22 140 151 159 141 129 136 149 187 184 193 232 232 167 90 136 236 239 242 221 159 57 229 238 244 201 144 156 183 224 247 250 246
171 172 173 171 172 172 171 171 167 159 157 160 159 159 159 146 204 211 156 145 155 167 177 171 167 169 178 182 171 167 166 144 162 169 163 170 176 177 180 181 167 158 181 180 149 125 128 124 122 94 134 193 166 113 76 36 211 207 178 165 175 178 174 203 194 197 229 220 100 90 301 240 245 250 245 251 264 237 225 229 225 182 172 168 218 258 264 256
172 172 172 172 173 172 172 169 162 158 160 160 157 160 165 162 192 201 171 165 158 160 167 164 167 170 173 181 173 163 164 155 171 177 171 176 183 186 200 202 182 186 194 169 151 154 159 134 160 155 170 213 208 160 143 172 199 201 185 182 199 189 182 205 200 206 225 194 74 209 254 261 265 260 246 250 253 222 192 211 227 249 250 224 222 264 271 261
171 172 172 175 175 170 169 165 162 162 161 157 155 165 187 183 190 192 181 174 128 143 153 152 157 165 173 183 172 162 166 160 169 174 172 177 184 190 204 207 195 201 186 163 161 174 184 186 179 167 150 184 199 195 149 164 178 194 195 198 211 201 200 205 200 210 204 120 78 210 218 232 239 358 254 258 265 205 218 231 239 247 248 240 238 260 266 257
168 171 173 175 174 170 167 166 166 166 161 158 158 178 188 190 191 191 181 159 144 145 144 145 149 161 176 182 169 168 176 171 171 175 177 185 194 192 193 197 197 197 174 166 164 177 193 197 117 83 71 160 170 238 340 142 164 188 15 194 230 229 133 145 198 187 141 72 156 188 240 244 254 314 290 260 250 227 227 233 239 244 248 247 249 257 255 246
164 170 173 174 173 170 168 169 170 169 164 161 166 186 195 199 191 189 167 139 151 146 138 146 155 165 172 168 171 177 188 174 173 177 189 196 205 201 194 191 190 193 184 173 153 167 189 182 53 86 93 80 68 22 339 353 163 164 152 179 211 23 77 118 169 84 68 272 207 169 237 259 272 285 260 232 226 216 199 201 223 236 244 246 249 250 239 233
163 169 174 174 173 170 169 173 173 170 169 172 187 189 200 205 197 184 146 126 139 143 140 153 167 175 175 169 179 179 171 161 173 183 189 191 206 205 200 196 186 191 197 183 172 187 168 130 40 55 114 76 8 57 70 14 32 130 170 170 147 57 45 133 228 163 191 246 224 168 224 249 250 258 225 192 224 238 214 188 201 219 229 237 241 235 224 224
164 166 170 174 174 170 170 174 175 172 173 192 202 200 210 197 157 141 136 124 137 151 154 162 167 185 185 173 177 178 170 167 177 187 184 184 204 198 195 196 182 188 200 215 173 191 142 123 79 1 101 104 48 176 143 60 23 48 237 195 135 200 207 186 211 220 208 231 245 206 215 237 235 230 226 195 211 239 235 201 191 204 213 226 229 215 207 212
161 160 167 175 172 170 171 173 174 174 177 203 203 207 208 176 127 142 144 136 146 163 168 164 159 184 194 177 170 171 176 180 175 181 191 187 187 187 190 189 166 180 187 45 90 170 99 136 141 55 28 124 144 212 190 172 141 38 295 224 42 259 230 198 204 233 236 233 249 234 208 223 223 217 233 235 223 236 241 218 197 206 213 217 212 197 199 207
159 153 167 174 169 168 170 168 168 175 191 205 201 199 184 157 119 154 153 147 152 173 178 172 162 169 180 176 168 163 178 187 175 185 206 184 176 194 197 188 156 158 151 64 22 168 76 221 144 102 344 174 178 210 204 182 168 170 186 176 176 189 197 250 225 231 264 242 247 250 242 240 212 194 217 231 236 242 253 259 220 206 208 206 199 198 205 206
159 146 169 172 168 163 162 160 169 185 202 209 206 188 162 138 127 156 153 145 144 142 188 171 166 168 166 169 168 160 171 186 182 192 205 189 193 213 203 190 159 142 135 100 201 179 141 165 132 134 184 185 170 19 6 4 162 177 190 185 188 180 157 203 213 169 186 247 251 261 266 262 168 158 209 215 219 173 55 338 263 216 205 201 197 201 207 206
158 147 168 170 167 161 158 158 186 194 209 207 187 130 134 130 141 157 145 137 140 90 105 161 164 164 161 168 169 158 162 180 186 192 203 205 205 197 191 186 155 146 150 150 153 124 90 100 108 127 174 164 80 41 50 26 352 297 242 207 192 186 186 207 211 184 182 213 333 308 277 274 130 126 247 234 113 126 182 238 242 239 226 211 202 200 202 204
152 130 163 169 167 162 161 164 185 196 230 177 127 83 105 124 140 152 151 156 158 140 147 161 160 163 170 174 169 162 166 176 190 196 201 204 204 169 161 163 147 148 160 155 144 150 132 116 115 107 79 81 137 139 95 49 319 251 242 217 199 195 196 208 214 187 176 173 188 232 251 260 217 132 284 293 278 251 247 245 238 239 236 222 211 204 201 203
128 123 156 170 169 167 170 180 179 194 205 165 146 115 92 95 140 155 167 174 170 163 168 166 163 167 169 168 169 171 173 177 196 205 205 191 184 123 147 159 156 160 180 182 168 166 170 159 135 129 130 140 164 170 169 221 212 219 225 199 203 188 127 95 62 231 210 193 195 222 253 258 227 114 237 256 250 252 251 246 243 240 237 229 219 212 208 207
121 125 155 169 173 178 194 218 189 190 170 157 168 166 137 95 149 165 169 165 157 170 172 156 152 144 131 154 170 177 183 194 201 202 208 186 162 117 153 167 173 177 179 166 159 159 173 189 153 158 173 173 184 200 201 189 175 196 171 155 193 197 174 179 202 213 218 198 184 210 249 253 204 113 231 216 207 240 237 231 243 244 235 228 224 221 216 213
130 112 146 166 178 191 220 253 232 179 158 159 177 178 165 156 157 174 171 159 148 167 159 124 141 138 134 161 171 178 192 204 198 183 197 181 141 107 168 174 182 182 148 143 157 154 155 231 185 196 201 191 202 205 179 135 142 188 201 192 197 204 200 198 203 214 217 213 201 214 236 249 237 168 201 209 204 223 220 207 228 242 237 226 222 223 219 214
148 158 146 159 179 201 229 236 216 185 171 173 174 175 177 169 150 164 196 185 164 164 142 108 158 165 163 170 174 183 192 194 159 168 189 177 120 80 142 171 183 170 135 154 166 156 148 215 204 214 221 221 224 206 158 147 171 193 198 199 202 202 199 197 210 221 218 216 231 227 232 247 246 207 200 211 203 211 222 210 213 234 242 233 225 226 225 216
113 150 171 170 166 195 212 205 198 191 179 178 172 167 177 175 162 169 188 170 170 180 173 159 182 185 178 172 171 177 186 191 190 189 183 162 130 110 116 128 178 152 139 164 172 168 200 208 209 214 225 236 234 187 161 170 183 192 193 195 193 190 190 197 213 226 220 214 235 236 232 239 243 232 220 216 208 211 215 206 204 225 243 242 232 230 230 223
110 108 163 179 175 187 181 173 183 188 180 178 177 172 178 179 174 172 160 133 173 202 203 194 193 190 180 174 173 173 179 188 197 194 171 141 146 141 133 140 148 152 157 156 166 223 244 214 211 204 224 240 215 143 175 188 189 199 202 195 184 182 189 198 210 223 222 221 233 239 240 243 243 237 230 228 225 216 198 188 212 233 245 248 240 236 237 233
136 108 146 169 159 142 155 154 170 183 181 179 181 179 183 186 180 169 155 162 176 194 208 205 191 187 182 177 183 189 188 193 197 179 142 123 146 162 159 159 139 137 162 148 136 294 227 215 197 164 220 237 191 135 201 202 197 206 200 186 177 182 195 206 215 222 222 226 235 241 248 255 253 245 239 232 219 197 166 190 223 238 246 251 247 242 242 240
150 130 139 154 146 151 161 163 171 178 181 185 186 181 186 192 183 164 150 177 183 181 196 201 182 178 182 184 196 206 196 193 191 161 154 158 172 178 178 161 141 137 168 174 151 142 185 214 112 142 218 234 193 169 156 97 43 252 188 173 173 179 195 205 212 217 213 220 235 242 247 253 252 240 233 216 185 164 170 206 227 244 248 251 250 245 242 240
164 148 148 158 159 164 168 165 174 184 186 191 192 182 183 191 185 171 154 182 201 187 186 192 178 169 183 195 205 210 186 165 140 162 174 183 183 180 180 170 161 157 163 177 177 171 177 186 172 174 212 232 193 164 141 111 99 243 211 194 187 191 201 205 213 219 213 215 225 231 236 241 233 186 197 180 154 167 186 203 222 239 244 248 249 245 243 241